2021-006L (47423 NORAD) Tracking and Keplerian Element Data

This shows tracking and keplerian element data for the satellite.

Feedback or suggestion? Click here.




ElementValue
Catalog47423
Name2021-006L
Epoch Orbit470
Epoch Day53.68261554
Epoch Year2021
RAAN116.9509
Inclination97.5059
Eccentricity0.0018294
Argument of Perigee150.8626
Mean Anonmoly209.3631
Mean Motion15.13904607
Decay Rate4.18E-06
L11 47423U 21006L 21053.68261554 .00000418 00000-0 26642-4 0 9994
L22 47423 97.5059 116.9509 0018294 150.8626 209.3631 15.13904607 4701

Live tracking and technical data element details for 2021-006L (NORAD 47423). 2021-006L can be tracked NOW for your location showing map with azimuth and elevation plus other details from your city location.

Track the satellite on the map from your city or location and see movement details for azimuth, elevation, latitude, longitude, range, height, and movement on the map or in text.







IsCatalogInMostPopularTable: catalog: 47423, numindb: 14
Update: records affected: 1



GetName: 47423 2021-006L

Hit Count: updated at: Sat, 10 Apr 2021 18:29:49 GMT